Location: Strawberry
(45.6646°N, 111.9596°W)
Time: 21:44:36
(UTC+00:00)

Courier 1B Rocket - Pass Details

Date: 10 October 2022
Orbit: 920 x 1202 km, 28.3° (Epoch: 03 December)

Event Time Altitude Azimuth Distance (km) Brightness Sun altitude
Rises 03:50:50 0° 247° (WSW) 3,790 8.6 -31.3°
Enters shadow 03:56:59 10° 206° (SSW) 2,745 7.3 -32.2°
Reaches altitude 10° 03:57:03 10° 205° (SSW) 2,741 - -32.2°
Maximum altitude 03:57:35 10° 201° (SSW) 2,726 - -32.3°
Drops below altitude 10° 03:58:07 10° 196° (SSW) 2,726 - -32.4°
Sets 04:04:05 0° 154° (SSE) 3,597 - -33.3°
